EWG925 GVAC-EDDH

Flight info

Callsign EWG925
Flight time N/A
Altitude 33000
Route PINPO2A PINPO UW11 GUNET N857 BIPET Z27 ODEGI/N0460F340 N873 GDV N858 VASTO UN858 AKUDA/N0415F240 UZ1 VFA UN726 EVURA UN873 PORTA N873 BARDI/N0451F360 N873 DELOG DCT YURZI UL14 TEPRA UN867 MOKOR UN873 OBATO UL976 RONAX UN873 ADUTO N873 SPY/N0450F370 N873 GRONY M105 OPJOT T907 MUBZI T903 RIBSO RIBSO2P
Aircraft A21N/M-SDE2E3FGHIRWXY/LB1

Departure

Time 2026-04-16 13:29
Airport Amílcar Cabral International Airport (GVAC)

Arrival

Time N/A
Airport Hamburg Helmut Schmidt Airport (EDDH)
Time Latitude Longitude Altitude Speed Heading
2026-04-16 13:05 16.73498 -22.94496 198 ft 0 kts 90°
2026-04-16 13:19 16.73498 -22.94497 186 ft 1 kts 90°
2026-04-16 13:20 16.73498 -22.94507 186 ft 0 kts 90°
2026-04-16 13:20 16.73498 -22.94531 192 ft 7 kts 90°
2026-04-16 13:20 16.73498 -22.94541 198 ft 0 kts 90°
2026-04-16 13:20 16.73498 -22.94544 198 ft 0 kts 90°
2026-04-16 13:21 16.73498 -22.94547 198 ft 0 kts 90°
2026-04-16 13:21 16.73498 -22.94549 198 ft 0 kts 90°
2026-04-16 13:21 16.73498 -22.94556 198 ft 0 kts 90°
2026-04-16 13:21 16.73498 -22.94561 198 ft 0 kts 90°
2026-04-16 13:22 16.73498 -22.94568 198 ft 0 kts 90°
2026-04-16 13:22 16.73498 -22.94572 198 ft 0 kts 90°
2026-04-16 13:23 16.73498 -22.94570 198 ft 0 kts 94°
2026-04-16 13:23 16.73486 -22.94565 186 ft 4 kts 194°
2026-04-16 13:23 16.73461 -22.94584 186 ft 6 kts 216°
2026-04-16 13:23 16.73412 -22.94596 186 ft 10 kts 177°
2026-04-16 13:24 16.73342 -22.94595 187 ft 11 kts 180°
2026-04-16 13:24 16.73265 -22.94595 185 ft 11 kts 180°
2026-04-16 13:24 16.73183 -22.94594 183 ft 12 kts 179°
2026-04-16 13:24 16.73097 -22.94601 188 ft 13 kts 207°
2026-04-16 13:25 16.73048 -22.94669 185 ft 12 kts 233°
2026-04-16 13:25 16.72971 -22.94691 187 ft 12 kts 179°
2026-04-16 13:25 16.72883 -22.94690 187 ft 13 kts 180°
2026-04-16 13:25 16.72791 -22.94690 188 ft 14 kts 180°
2026-04-16 13:26 16.72693 -22.94690 187 ft 14 kts 179°
2026-04-16 13:26 16.72592 -22.94689 188 ft 15 kts 179°
2026-04-16 13:26 16.72489 -22.94688 185 ft 14 kts 180°
2026-04-16 13:26 16.72439 -22.94692 187 ft 8 kts 201°
2026-04-16 13:27 16.72408 -22.94739 189 ft 9 kts 259°
2026-04-16 13:27 16.72408 -22.94803 187 ft 9 kts 270°
2026-04-16 13:27 16.72408 -22.94871 187 ft 10 kts 279°
2026-04-16 13:27 16.72440 -22.94888 188 ft 0 kts 360°
2026-04-16 13:28 16.72652 -22.94887 197 ft 69 kts
2026-04-16 13:28 16.73352 -22.94891 187 ft 132 kts
2026-04-16 13:28 16.74418 -22.94900 380 ft 161 kts
2026-04-16 13:29 16.75540 -22.94913 976 ft 162 kts
2026-04-16 13:29 16.76693 -22.94947 1531 ft 173 kts 360°
2026-04-16 13:29 16.77974 -22.94961 1896 ft 193 kts
2026-04-16 13:29 16.79353 -22.94965 2503 ft 204 kts
2026-04-16 13:30 16.80820 -22.94973 3103 ft 218 kts
2026-04-16 13:30 16.82408 -22.94987 3438 ft 239 kts
2026-04-16 13:30 16.84150 -22.94999 3752 ft 260 kts
2026-04-16 13:30 16.85922 -22.94669 4255 ft 266 kts 25°
2026-04-16 13:31 16.87414 -22.93550 4863 ft 269 kts 50°
2026-04-16 13:31 16.88322 -22.91835 5433 ft 274 kts 71°
2026-04-16 13:31 16.88758 -22.89871 6021 ft 280 kts 78°
2026-04-16 13:31 16.89122 -22.87849 6554 ft 287 kts 77°
2026-04-16 13:32 16.89515 -22.85792 7137 ft 291 kts 77°
2026-04-16 13:32 16.89928 -22.83702 7697 ft 297 kts 77°
2026-04-16 13:32 16.90358 -22.81578 8278 ft 301 kts 77°
2026-04-16 13:32 16.90652 -22.80160 8704 ft 303 kts 77°
2026-04-16 13:33 16.91263 -22.77269 9560 ft 307 kts 76°
2026-04-16 13:33 16.91662 -22.75841 9958 ft 309 kts 67°
2026-04-16 13:33 16.92793 -22.73910 10312 ft 320 kts 48°
2026-04-16 13:33 16.94353 -22.72173 10571 ft 336 kts 44°
2026-04-16 13:34 16.96040 -22.70390 10798 ft 353 kts 45°
2026-04-16 13:34 16.97785 -22.68495 11020 ft 370 kts 45°
2026-04-16 13:34 16.99589 -22.66498 11235 ft 386 kts 46°
2026-04-16 13:34 17.01475 -22.64424 11447 ft 400 kts 45°
2026-04-16 13:35 17.03438 -22.62293 11645 ft 413 kts 45°
2026-04-16 13:35 17.05456 -22.60089 11836 ft 425 kts 46°
2026-04-16 13:35 17.07504 -22.57836 12192 ft 430 kts 46°
2026-04-16 13:35 17.09570 -22.55558 12593 ft 433 kts 46°
2026-04-16 13:36 17.11651 -22.53260 12998 ft 437 kts 46°
2026-04-16 13:36 17.13750 -22.50939 13417 ft 440 kts 46°
2026-04-16 13:36 17.15858 -22.48602 13823 ft 444 kts 47°
2026-04-16 13:36 17.17985 -22.46242 14185 ft 446 kts 46°
2026-04-16 13:37 17.20095 -22.43907 14519 ft 449 kts 46°
2026-04-16 13:37 17.22247 -22.41529 14871 ft 451 kts 46°
2026-04-16 13:37 17.24413 -22.39133 15256 ft 454 kts 46°
2026-04-16 13:37 17.26586 -22.36722 15624 ft 457 kts 46°
2026-04-16 13:38 17.28774 -22.34298 15986 ft 459 kts 46°
2026-04-16 13:38 17.30969 -22.31861 16287 ft 461 kts 46°
2026-04-16 13:38 17.33171 -22.29409 16594 ft 463 kts 46°
2026-04-16 13:38 17.35387 -22.26948 16892 ft 465 kts 46°
2026-04-16 13:39 17.37615 -22.24475 17199 ft 467 kts 46°
2026-04-16 13:39 17.39845 -22.21997 17486 ft 469 kts 46°
2026-04-16 13:39 17.42092 -22.19507 17773 ft 471 kts 46°
2026-04-16 13:39 17.44322 -22.17032 18071 ft 473 kts 46°
2026-04-16 13:40 17.46586 -22.14517 18353 ft 475 kts 46°
2026-04-16 13:40 17.48860 -22.11991 18616 ft 477 kts 46°
2026-04-16 13:40 17.51145 -22.09449 18892 ft 479 kts 46°
2026-04-16 13:40 17.53429 -22.06906 19148 ft 480 kts 45°
2026-04-16 13:41 17.55724 -22.04349 19434 ft 482 kts 45°
2026-04-16 13:41 17.58025 -22.01786 19745 ft 484 kts 45°
2026-04-16 13:41 17.60335 -21.99211 20048 ft 485 kts 45°
2026-04-16 13:41 17.62652 -21.96618 20339 ft 487 kts 45°
2026-04-16 13:42 17.64971 -21.94022 20635 ft 489 kts 45°
2026-04-16 13:42 17.67313 -21.91418 20980 ft 491 kts 45°
2026-04-16 13:42 17.69660 -21.88806 21356 ft 494 kts 45°
2026-04-16 13:42 17.72018 -21.86178 21740 ft 496 kts 45°
2026-04-16 13:43 17.74390 -21.83537 22100 ft 498 kts 45°
2026-04-16 13:43 17.76766 -21.80873 22446 ft 501 kts 45°
2026-04-16 13:43 17.79155 -21.78203 22789 ft 502 kts 45°
2026-04-16 13:43 17.81552 -21.75535 23094 ft 504 kts 45°
2026-04-16 13:44 17.83967 -21.72845 23379 ft 506 kts 45°
2026-04-16 13:44 17.86382 -21.70150 23672 ft 507 kts 45°
2026-04-16 13:44 17.88797 -21.67450 23993 ft 507 kts 45°
2026-04-16 13:44 17.91176 -21.64782 24267 ft 507 kts 45°
2026-04-16 13:45 17.93580 -21.62068 24537 ft 507 kts 45°
2026-04-16 13:45 17.95992 -21.59363 24797 ft 507 kts 44°
2026-04-16 13:45 17.98419 -21.56663 25062 ft 507 kts 44°
2026-04-16 13:45 18.00843 -21.53959 25332 ft 508 kts 44°
2026-04-16 13:46 18.03259 -21.51255 25612 ft 508 kts 44°
2026-04-16 13:46 18.05676 -21.48546 25880 ft 508 kts 44°
2026-04-16 13:46 18.08099 -21.45824 26158 ft 509 kts 44°
2026-04-16 13:46 18.10514 -21.43103 26458 ft 509 kts 45°
2026-04-16 13:47 18.12907 -21.40366 26737 ft 509 kts 45°
2026-04-16 13:47 18.15316 -21.37636 27017 ft 509 kts 44°
2026-04-16 13:47 18.17707 -21.34958 27292 ft 509 kts 44°
2026-04-16 13:47 18.20133 -21.32248 27568 ft 509 kts 44°
2026-04-16 13:48 18.22548 -21.29518 27862 ft 510 kts 44°
2026-04-16 13:48 18.24987 -21.26746 28141 ft 510 kts 44°
2026-04-16 13:48 18.27376 -21.24049 28411 ft 510 kts 44°
2026-04-16 13:48 18.29813 -21.21326 28698 ft 510 kts 44°
2026-04-16 13:49 18.32248 -21.18604 28965 ft 511 kts 44°
2026-04-16 13:49 18.34679 -21.15873 29245 ft 511 kts 44°
2026-04-16 13:49 18.37101 -21.13136 29526 ft 511 kts 44°
2026-04-16 13:49 18.39517 -21.10395 29808 ft 511 kts 44°
2026-04-16 13:50 18.41924 -21.07633 30082 ft 511 kts 44°
2026-04-16 13:50 18.44342 -21.04885 30317 ft 511 kts 43°
2026-04-16 13:50 18.46772 -21.02137 30571 ft 511 kts 43°
2026-04-16 13:50 18.49206 -20.99414 30817 ft 510 kts 42°
2026-04-16 13:51 18.51645 -20.96695 31073 ft 510 kts 42°
2026-04-16 13:51 18.54042 -20.94013 31295 ft 510 kts 42°
2026-04-16 13:51 18.56488 -20.91247 31549 ft 509 kts 43°
2026-04-16 13:51 18.58863 -20.88539 31785 ft 509 kts 42°
2026-04-16 13:52 18.61272 -20.85805 32023 ft 509 kts 42°
2026-04-16 13:52 18.63689 -20.83073 32235 ft 509 kts 41°
2026-04-16 13:52 18.66107 -20.80342 32451 ft 509 kts 42°
2026-04-16 13:52 18.68502 -20.77598 32669 ft 509 kts 42°
2026-04-16 13:53 18.70896 -20.74844 32880 ft 509 kts 42°
2026-04-16 13:53 18.73292 -20.72095 33004 ft 509 kts 41°
2026-04-16 13:53 18.75696 -20.69357 33009 ft 508 kts 41°
2026-04-16 13:54 18.80500 -20.63895 32973 ft 507 kts 41°
2026-04-16 13:54 18.85276 -20.58464 32965 ft 507 kts 41°
2026-04-16 13:55 18.90077 -20.53003 32975 ft 507 kts 41°
2026-04-16 13:55 18.94907 -20.47567 32972 ft 507 kts 41°
2026-04-16 13:56 18.99697 -20.42090 32975 ft 507 kts 42°
2026-04-16 13:56 19.04465 -20.36604 32969 ft 507 kts 42°
2026-04-16 13:57 19.09261 -20.31142 32966 ft 507 kts 42°
2026-04-16 13:57 19.14047 -20.25668 32963 ft 506 kts 42°
2026-04-16 13:58 19.21200 -20.17499 32965 ft 507 kts 42°
2026-04-16 13:58 19.25983 -20.12026 32962 ft 506 kts 41°
2026-04-16 13:59 19.30766 -20.06567 32960 ft 505 kts 42°
2026-04-16 13:59 19.35525 -20.01116 32972 ft 504 kts 42°
2026-04-16 14:00 19.40279 -19.95648 32966 ft 504 kts 42°
2026-04-16 14:00 19.45041 -19.90185 32963 ft 504 kts 42°
2026-04-16 14:01 19.49789 -19.84725 32962 ft 504 kts 42°
2026-04-16 14:01 19.54531 -19.79241 32960 ft 504 kts 42°
2026-04-16 14:02 19.59387 -19.73936 32955 ft 497 kts 34°
2026-04-16 14:02 19.65131 -19.70065 32960 ft 487 kts 22°
2026-04-16 14:03 19.71022 -19.66607 32972 ft 486 kts 23°
2026-04-16 14:03 19.76926 -19.63087 32964 ft 487 kts 23°
2026-04-16 14:04 19.82820 -19.59550 32962 ft 487 kts 23°
2026-04-16 14:04 19.88718 -19.56008 32957 ft 487 kts 23°
2026-04-16 14:05 19.94611 -19.52467 32956 ft 487 kts 23°
2026-04-16 14:05 20.00502 -19.48916 32957 ft 487 kts 23°
2026-04-16 14:06 20.06354 -19.45396 32972 ft 486 kts 24°
2026-04-16 14:06 20.12248 -19.41842 32959 ft 486 kts 24°
2026-04-16 14:07 20.18138 -19.38294 32954 ft 486 kts 24°
2026-04-16 14:07 20.24027 -19.34736 32955 ft 486 kts 24°
2026-04-16 14:08 20.29918 -19.31182 32955 ft 486 kts 24°
2026-04-16 14:08 20.35762 -19.27647 32959 ft 486 kts 24°
2026-04-16 14:09 20.41649 -19.24087 32956 ft 486 kts 24°
2026-04-16 14:09 20.47529 -19.20530 32956 ft 486 kts 24°
2026-04-16 14:10 20.53411 -19.16961 32956 ft 486 kts 24°
2026-04-16 14:10 20.59302 -19.13385 32956 ft 486 kts 24°
2026-04-16 14:11 20.65179 -19.09817 32954 ft 486 kts 24°
2026-04-16 14:11 20.71024 -19.06268 32969 ft 486 kts 24°
2026-04-16 14:12 20.76906 -19.02688 32958 ft 485 kts 24°
2026-04-16 14:12 20.82776 -18.99115 32956 ft 485 kts 24°
2026-04-16 14:13 20.88637 -18.95541 32953 ft 485 kts 24°
2026-04-16 14:13 20.94503 -18.91963 32952 ft 485 kts 24°
2026-04-16 14:14 21.00326 -18.88395 32956 ft 485 kts 25°
2026-04-16 14:14 21.06176 -18.84795 32969 ft 485 kts 25°
2026-04-16 14:15 21.12036 -18.81209 32963 ft 485 kts 25°
2026-04-16 14:15 21.17888 -18.77610 32963 ft 485 kts 25°
2026-04-16 14:16 21.23753 -18.74041 32958 ft 485 kts 25°
2026-04-16 14:16 21.29596 -18.70430 32956 ft 485 kts 25°
2026-04-16 14:17 21.35446 -18.66825 32961 ft 485 kts 25°
2026-04-16 14:17 21.41250 -18.63207 32964 ft 484 kts 25°
2026-04-16 14:18 21.47098 -18.59616 32957 ft 484 kts 25°
2026-04-16 14:18 21.52950 -18.56026 32962 ft 484 kts 25°
2026-04-16 14:19 21.58804 -18.52425 32962 ft 485 kts 25°
2026-04-16 14:19 21.64638 -18.48803 32962 ft 484 kts 25°
2026-04-16 14:20 21.70492 -18.45205 32964 ft 484 kts 25°
2026-04-16 14:20 21.76370 -18.41642 32965 ft 485 kts 25°
2026-04-16 14:21 21.81252 -18.38654 32965 ft 486 kts 25°
2026-04-16 14:21 21.87111 -18.35027 32964 ft 486 kts 25°
2026-04-16 14:22 21.93919 -18.30806 32968 ft 486 kts 25°
2026-04-16 14:22 21.98795 -18.27779 32963 ft 486 kts 25°
2026-04-16 14:23 22.04656 -18.24142 32966 ft 486 kts 25°
2026-04-16 14:23 22.10510 -18.20506 32969 ft 486 kts 25°
2026-04-16 14:24 22.16374 -18.16858 32965 ft 486 kts 26°
2026-04-16 14:24 22.22229 -18.13212 32965 ft 486 kts 26°
2026-04-16 14:25 22.28052 -18.09578 32967 ft 486 kts 26°
2026-04-16 14:25 22.33910 -18.05921 32968 ft 486 kts 26°
2026-04-16 14:26 22.39777 -18.02260 32984 ft 486 kts 26°
2026-04-16 14:26 22.45638 -17.98602 32964 ft 486 kts 26°
2026-04-16 14:27 22.51488 -17.94933 32971 ft 486 kts 26°
2026-04-16 14:27 22.57348 -17.91265 32971 ft 486 kts 26°
2026-04-16 14:28 22.63201 -17.87598 32962 ft 486 kts 26°
2026-04-16 14:28 22.69035 -17.83871 32961 ft 486 kts 26°
2026-04-16 14:29 22.74838 -17.80201 32980 ft 485 kts 26°
2026-04-16 14:29 22.80685 -17.76551 32970 ft 485 kts 25°
2026-04-16 14:30 22.86534 -17.72878 32971 ft 486 kts 26°
2026-04-16 14:30 22.92383 -17.69186 32970 ft 486 kts 26°
2026-04-16 14:31 22.98231 -17.65490 32967 ft 486 kts 26°
2026-04-16 14:31 23.04081 -17.61806 32973 ft 486 kts 26°
2026-04-16 14:32 23.09879 -17.58121 32974 ft 485 kts 26°
2026-04-16 14:32 23.15697 -17.54416 32975 ft 485 kts 26°
2026-04-16 14:33 23.21535 -17.50728 32974 ft 484 kts 26°
2026-04-16 14:33 23.27372 -17.47036 32977 ft 485 kts 26°
2026-04-16 14:34 23.33192 -17.43323 32974 ft 485 kts 26°
2026-04-16 14:34 23.39017 -17.39609 32975 ft 485 kts 26°
2026-04-16 14:35 23.44805 -17.35923 32974 ft 484 kts 26°
2026-04-16 14:35 23.50670 -17.32213 32977 ft 484 kts 26°
2026-04-16 14:36 23.56447 -17.28524 32980 ft 484 kts 26°
2026-04-16 14:36 23.62290 -17.24859 32975 ft 484 kts 26°
2026-04-16 14:37 23.68126 -17.21179 32971 ft 484 kts 26°
2026-04-16 14:37 23.73937 -17.17454 32975 ft 485 kts 27°
2026-04-16 14:38 23.79730 -17.13670 32975 ft 485 kts 27°
2026-04-16 14:38 23.85546 -17.09925 32984 ft 485 kts 26°
2026-04-16 14:39 23.91384 -17.06201 32987 ft 485 kts 26°
2026-04-16 14:39 23.97192 -17.02441 32975 ft 485 kts 26°
2026-04-16 14:40 24.02984 -16.98720 32989 ft 485 kts 26°
2026-04-16 14:40 24.08814 -16.94983 32977 ft 485 kts 26°
2026-04-16 14:41 24.14652 -16.91257 32990 ft 485 kts 26°
2026-04-16 14:41 24.20499 -16.87552 32993 ft 486 kts 26°
2026-04-16 14:42 24.26290 -16.83825 32990 ft 486 kts 26°
2026-04-16 14:42 24.32144 -16.80034 32988 ft 486 kts 27°
2026-04-16 14:43 24.37931 -16.76292 32988 ft 486 kts 26°
2026-04-16 14:43 24.43767 -16.72517 32985 ft 487 kts 27°
2026-04-16 14:44 24.49609 -16.68733 32986 ft 487 kts 26°
2026-04-16 14:44 24.55451 -16.64937 32985 ft 488 kts 27°
2026-04-16 14:45 24.61301 -16.61135 32994 ft 488 kts 26°
2026-04-16 14:45 24.67104 -16.57367 32995 ft 488 kts 27°
2026-04-16 14:46 24.72946 -16.53567 33005 ft 488 kts 27°
2026-04-16 14:46 24.78797 -16.49754 32994 ft 488 kts 27°
2026-04-16 14:47 24.84643 -16.45938 32993 ft 488 kts 27°
2026-04-16 14:47 24.90488 -16.42122 32994 ft 488 kts 27°
2026-04-16 14:48 24.96336 -16.38288 32994 ft 488 kts 27°
2026-04-16 14:48 25.02294 -16.34747 33004 ft 485 kts 20°
2026-04-16 14:49 25.08433 -16.31709 33001 ft 483 kts 19°
2026-04-16 14:49 25.14573 -16.28668 33001 ft 483 kts 20°
2026-04-16 14:50 25.20676 -16.25635 33001 ft 483 kts 20°
2026-04-16 14:50 25.26809 -16.22574 33007 ft 484 kts 20°
2026-04-16 14:51 25.32936 -16.19480 33001 ft 484 kts 20°
2026-04-16 14:51 25.39055 -16.16401 33013 ft 482 kts 20°
2026-04-16 14:53 25.63510 -16.04227 33012 ft 482 kts 20°
2026-04-16 14:54 25.69625 -16.01164 33022 ft 481 kts 20°
2026-04-16 14:54 25.75720 -15.98094 33054 ft 480 kts 20°
2026-04-16 14:55 25.78753 -15.96567 33274 ft 480 kts 19°
2026-04-16 14:55 25.81786 -15.95046 33521 ft 478 kts 19°
2026-04-16 14:55 25.84819 -15.93520 33755 ft 478 kts 19°
2026-04-16 14:55 25.87844 -15.91997 33962 ft 477 kts 19°
2026-04-16 14:56 25.93900 -15.88949 34047 ft 477 kts 19°
2026-04-16 14:56 25.99945 -15.85898 34039 ft 476 kts 19°
2026-04-16 14:57 26.05966 -15.82854 34024 ft 475 kts 19°
2026-04-16 14:57 26.11978 -15.79810 34024 ft 475 kts 19°
2026-04-16 14:58 26.20991 -15.75244 34023 ft 475 kts 20°
2026-04-16 14:59 26.26954 -15.72156 34025 ft 475 kts 20°
2026-04-16 14:59 26.32962 -15.69094 34033 ft 473 kts 19°
2026-04-16 15:00 26.38953 -15.66060 34031 ft 473 kts 19°
2026-04-16 15:00 26.44957 -15.63050 34034 ft 473 kts 19°
2026-04-16 15:01 26.50942 -15.60021 34031 ft 472 kts 19°
2026-04-16 15:01 26.56920 -15.56973 34033 ft 472 kts 19°
2026-04-16 15:02 26.62898 -15.53916 34041 ft 472 kts 19°
2026-04-16 15:02 26.68863 -15.50863 34029 ft 471 kts 19°
2026-04-16 15:03 26.74836 -15.47807 34032 ft 471 kts 19°
2026-04-16 15:03 26.80765 -15.44769 34032 ft 471 kts 19°
2026-04-16 15:04 26.86730 -15.41707 34038 ft 471 kts 19°
2026-04-16 15:04 26.92694 -15.38647 34039 ft 471 kts 19°
2026-04-16 15:05 26.98655 -15.35584 34047 ft 471 kts 19°
2026-04-16 15:05 27.04624 -15.32504 34038 ft 471 kts 19°
2026-04-16 15:06 27.10588 -15.29429 34038 ft 471 kts 19°
2026-04-16 15:06 27.16516 -15.26371 34038 ft 471 kts 19°
2026-04-16 15:07 27.22480 -15.23288 34049 ft 471 kts 19°
2026-04-16 15:07 27.28428 -15.20210 34042 ft 470 kts 19°
2026-04-16 15:08 27.34371 -15.17134 34041 ft 470 kts 19°
2026-04-16 15:08 27.40315 -15.14050 34041 ft 470 kts 19°
2026-04-16 15:09 27.45253 -15.11487 34042 ft 470 kts 19°
2026-04-16 15:09 27.51191 -15.08401 34044 ft 470 kts 19°
2026-04-16 15:10 27.58078 -15.04816 34053 ft 467 kts 19°
2026-04-16 15:10 27.63029 -15.02243 34049 ft 467 kts 19°
2026-04-16 15:11 27.68894 -14.99177 34045 ft 467 kts 19°
2026-04-16 15:11 27.74792 -14.96092 34053 ft 467 kts 19°
2026-04-16 15:12 27.80698 -14.93001 34054 ft 467 kts 19°
2026-04-16 15:12 27.86581 -14.89933 34067 ft 465 kts 19°
2026-04-16 15:13 27.92459 -14.86863 34058 ft 465 kts 19°
2026-04-16 15:13 27.98328 -14.83783 34056 ft 465 kts 20°
2026-04-16 15:14 28.04152 -14.80720 34060 ft 465 kts 20°
2026-04-16 15:14 28.10015 -14.77629 34062 ft 465 kts 20°
2026-04-16 15:15 28.15889 -14.74538 34074 ft 465 kts 20°
2026-04-16 15:15 28.21745 -14.71442 34064 ft 464 kts 19°
2026-04-16 15:16 28.27594 -14.68356 34063 ft 464 kts 19°
2026-04-16 15:16 28.33449 -14.65241 34062 ft 464 kts 20°
2026-04-16 15:17 28.39299 -14.62138 34062 ft 464 kts 20°
2026-04-16 15:17 28.45154 -14.59040 34062 ft 464 kts 19°
2026-04-16 15:18 28.50993 -14.55950 34075 ft 461 kts 19°
2026-04-16 15:18 28.56814 -14.52858 34068 ft 460 kts 19°
2026-04-16 15:19 28.62623 -14.49782 34067 ft 460 kts 19°
2026-04-16 15:19 28.68390 -14.46721 34065 ft 460 kts 19°
2026-04-16 15:20 28.74197 -14.43626 34069 ft 461 kts 19°
2026-04-16 15:20 28.79990 -14.40530 34074 ft 458 kts 19°
2026-04-16 15:21 28.85768 -14.37439 34061 ft 458 kts 19°
2026-04-16 15:21 28.91516 -14.34365 34073 ft 458 kts 19°
2026-04-16 15:22 28.97328 -14.31250 34066 ft 458 kts 19°
2026-04-16 15:22 29.03062 -14.28171 34078 ft 459 kts 19°
2026-04-16 15:23 29.08830 -14.25071 34082 ft 456 kts 19°
2026-04-16 15:23 29.14574 -14.21982 34078 ft 456 kts 19°
2026-04-16 15:24 29.20290 -14.18913 34083 ft 452 kts 19°
2026-04-16 15:24 29.25996 -14.15838 34078 ft 453 kts 19°
2026-04-16 15:25 29.31694 -14.12763 34081 ft 453 kts 19°
2026-04-16 15:25 29.37394 -14.09676 34095 ft 452 kts 19°
2026-04-16 15:26 29.43075 -14.06612 34091 ft 451 kts 19°
2026-04-16 15:26 29.48758 -14.03535 34088 ft 451 kts 19°
2026-04-16 15:27 29.54433 -14.00450 34087 ft 452 kts 19°
2026-04-16 15:27 29.60115 -13.97365 34087 ft 451 kts 19°
2026-04-16 15:28 29.65761 -13.94289 34098 ft 451 kts 19°
2026-04-16 15:28 29.71438 -13.91203 34088 ft 451 kts 19°
2026-04-16 15:29 29.77112 -13.88109 34090 ft 451 kts 19°
2026-04-16 15:29 29.82779 -13.85012 34099 ft 450 kts 19°
2026-04-16 15:30 29.88432 -13.81922 34088 ft 448 kts 19°
2026-04-16 15:30 29.94031 -13.78856 34089 ft 448 kts 19°
2026-04-16 15:31 29.99660 -13.75738 34091 ft 448 kts 19°
2026-04-16 15:31 30.05304 -13.72659 34091 ft 448 kts 19°
2026-04-16 15:32 30.10946 -13.69566 34089 ft 449 kts 19°
2026-04-16 15:32 30.16596 -13.66470 34088 ft 449 kts 19°
2026-04-16 15:33 30.22206 -13.63375 34088 ft 449 kts 19°
2026-04-16 15:33 30.27849 -13.60274 34095 ft 449 kts 19°
2026-04-16 15:34 30.33499 -13.57160 34089 ft 449 kts 19°
2026-04-16 15:34 30.39151 -13.54037 34092 ft 449 kts 19°
2026-04-16 15:35 30.44795 -13.50911 34092 ft 449 kts 19°
2026-04-16 15:35 30.50432 -13.47791 34101 ft 447 kts 19°
2026-04-16 15:36 30.56049 -13.44666 34096 ft 447 kts 19°
2026-04-16 15:36 30.61631 -13.41557 34093 ft 448 kts 19°
2026-04-16 15:37 30.67253 -13.38429 34096 ft 448 kts 19°
2026-04-16 15:37 30.72872 -13.35302 34095 ft 448 kts 19°
2026-04-16 15:38 30.78490 -13.32170 34091 ft 448 kts 19°
2026-04-16 15:38 30.84110 -13.29030 34112 ft 448 kts 19°
2026-04-16 15:39 30.89733 -13.25887 34100 ft 448 kts 19°
2026-04-16 15:39 30.95350 -13.22743 34100 ft 448 kts 19°
2026-04-16 15:40 31.00967 -13.19594 34099 ft 448 kts 19°
2026-04-16 15:40 31.06549 -13.16457 34100 ft 448 kts 19°
2026-04-16 15:41 31.12165 -13.13298 34106 ft 448 kts 19°
2026-04-16 15:41 31.17757 -13.10145 34105 ft 446 kts 20°
2026-04-16 15:42 31.23359 -13.06987 34100 ft 446 kts 20°
2026-04-16 15:42 31.28923 -13.03855 34095 ft 446 kts 20°
2026-04-16 15:43 31.34513 -13.00699 34103 ft 446 kts 20°
2026-04-16 15:43 31.40100 -12.97536 34102 ft 446 kts 20°
2026-04-16 15:44 31.45691 -12.94363 34109 ft 447 kts 20°
2026-04-16 15:44 31.51294 -12.91187 34106 ft 447 kts 20°
2026-04-16 15:45 31.56894 -12.88005 34108 ft 447 kts 20°
2026-04-16 15:45 31.62495 -12.84821 34106 ft 447 kts 20°
2026-04-16 15:46 31.68061 -12.81648 34109 ft 447 kts 20°
2026-04-16 15:46 31.73660 -12.78456 34111 ft 448 kts 21°
2026-04-16 15:47 31.79255 -12.75253 34123 ft 447 kts 21°
2026-04-16 15:47 31.84846 -12.72059 34114 ft 447 kts 21°
2026-04-16 15:48 31.90438 -12.68855 34113 ft 447 kts 21°
2026-04-16 15:48 31.96028 -12.65644 34113 ft 447 kts 21°
2026-04-16 15:49 32.01616 -12.62431 34114 ft 447 kts 22°
2026-04-16 15:49 32.07206 -12.59222 34112 ft 447 kts 22°
2026-04-16 15:50 32.12807 -12.55998 34113 ft 447 kts 22°
2026-04-16 15:50 32.18403 -12.52763 34112 ft 447 kts 22°
2026-04-16 15:51 32.23959 -12.49556 34113 ft 447 kts 22°
2026-04-16 15:51 32.29545 -12.46321 34122 ft 448 kts 22°
2026-04-16 15:52 32.35147 -12.43076 34115 ft 448 kts 22°
2026-04-16 15:52 32.40748 -12.39837 34116 ft 448 kts 23°
2026-04-16 15:53 32.46359 -12.36572 34128 ft 449 kts 23°
2026-04-16 15:53 32.51976 -12.33311 34124 ft 450 kts 23°
2026-04-16 15:54 32.57599 -12.30039 34126 ft 450 kts 24°
2026-04-16 15:54 32.63223 -12.26755 34117 ft 451 kts 24°
2026-04-16 15:55 32.68851 -12.23465 34124 ft 451 kts 24°
2026-04-16 15:55 32.74479 -12.20173 34120 ft 451 kts 24°
2026-04-16 15:56 32.80076 -12.16896 34122 ft 451 kts 24°
2026-04-16 15:56 32.84753 -12.14155 34108 ft 451 kts 24°
2026-04-16 15:57 32.90378 -12.10853 34129 ft 451 kts 24°
2026-04-16 15:57 32.96005 -12.07547 34117 ft 451 kts 24°
2026-04-16 15:58 33.01631 -12.04231 34123 ft 451 kts 24°
2026-04-16 15:58 33.07278 -12.00891 34111 ft 454 kts 24°
2026-04-16 15:59 33.15773 -11.95837 34117 ft 456 kts 24°
2026-04-16 15:59 33.21443 -11.92441 34117 ft 456 kts 25°
2026-04-16 16:00 33.27128 -11.89057 34112 ft 456 kts 24°
2026-04-16 16:00 33.32817 -11.85687 34125 ft 456 kts 24°
2026-04-16 16:01 33.38496 -11.82317 34115 ft 456 kts 24°
2026-04-16 16:01 33.44159 -11.78934 34126 ft 459 kts 25°
2026-04-16 16:02 33.49876 -11.75525 34115 ft 458 kts 25°
2026-04-16 16:02 33.55582 -11.72115 34115 ft 458 kts 25°
2026-04-16 16:03 33.61292 -11.68697 34120 ft 458 kts 25°
2026-04-16 16:03 33.66981 -11.65308 34123 ft 458 kts 26°
2026-04-16 16:04 33.72696 -11.61877 34120 ft 459 kts 25°
2026-04-16 16:04 33.78435 -11.58499 34120 ft 459 kts 26°
2026-04-16 16:05 33.84155 -11.55073 34134 ft 459 kts 26°
2026-04-16 16:05 33.89873 -11.51629 34124 ft 459 kts 26°
2026-04-16 16:06 33.95595 -11.48181 34123 ft 460 kts 26°
2026-04-16 16:06 34.01312 -11.44720 34144 ft 460 kts 26°
2026-04-16 16:07 34.06989 -11.41284 34122 ft 460 kts 26°
2026-04-16 16:07 34.12704 -11.37820 34125 ft 460 kts 27°
2026-04-16 16:08 34.18425 -11.34351 34127 ft 459 kts 26°
2026-04-16 16:08 34.24150 -11.30871 34137 ft 461 kts 28°
2026-04-16 16:09 34.29879 -11.27314 34141 ft 461 kts 28°
2026-04-16 16:09 34.35585 -11.23835 34131 ft 462 kts 27°
2026-04-16 16:10 34.41343 -11.20356 34145 ft 462 kts 28°
2026-04-16 16:10 34.47067 -11.16798 34149 ft 462 kts 28°
2026-04-16 16:11 34.52816 -11.13285 34142 ft 464 kts 28°
2026-04-16 16:11 34.58570 -11.09763 34140 ft 464 kts 28°
2026-04-16 16:12 34.64321 -11.06208 34148 ft 463 kts 29°
2026-04-16 16:12 34.70065 -11.02656 34151 ft 464 kts 28°
2026-04-16 16:13 34.75817 -10.99103 34130 ft 463 kts 28°
2026-04-16 16:13 34.81521 -10.95578 34145 ft 461 kts 28°
2026-04-16 16:14 34.87302 -10.92038 34146 ft 461 kts 29°
2026-04-16 16:14 34.93002 -10.88551 34149 ft 461 kts 28°
2026-04-16 16:15 34.98731 -10.85026 34152 ft 461 kts 29°
2026-04-16 16:15 35.04451 -10.81476 34144 ft 462 kts 29°
2026-04-16 16:16 35.10176 -10.77911 34156 ft 461 kts 29°
2026-04-16 16:16 35.15901 -10.74353 34153 ft 461 kts 29°
2026-04-16 16:17 35.21619 -10.70777 34153 ft 462 kts 29°
2026-04-16 16:17 35.27342 -10.67190 34149 ft 462 kts 28°
2026-04-16 16:18 35.33044 -10.63626 34150 ft 463 kts 28°
2026-04-16 16:18 35.38786 -10.60021 34146 ft 463 kts 29°
2026-04-16 16:19 35.44521 -10.56414 34140 ft 463 kts 29°
2026-04-16 16:19 35.50258 -10.52799 34149 ft 463 kts 29°
2026-04-16 16:20 35.55989 -10.49183 34151 ft 463 kts 29°
2026-04-16 16:20 35.61721 -10.45562 34155 ft 463 kts 29°
2026-04-16 16:21 35.67451 -10.41941 34159 ft 463 kts 29°
2026-04-16 16:21 35.73179 -10.38321 34150 ft 463 kts 29°
2026-04-16 16:22 35.78908 -10.34683 34158 ft 463 kts 29°
2026-04-16 16:22 35.84602 -10.31059 34150 ft 464 kts 29°
2026-04-16 16:23 35.90346 -10.27410 34144 ft 464 kts 29°
2026-04-16 16:23 35.96086 -10.23754 34150 ft 464 kts 29°
2026-04-16 16:24 36.01825 -10.20086 34152 ft 464 kts 29°
2026-04-16 16:24 36.07560 -10.16412 34151 ft 464 kts 29°
2026-04-16 16:25 36.13317 -10.12701 34154 ft 466 kts 29°
2026-04-16 16:25 36.19071 -10.09000 34154 ft 466 kts 29°
2026-04-16 16:26 36.24820 -10.05316 34156 ft 466 kts 29°
2026-04-16 16:26 36.30541 -10.01639 34157 ft 466 kts 29°
2026-04-16 16:27 36.36304 -9.97925 34156 ft 468 kts 28°
2026-04-16 16:27 36.42092 -9.94186 34155 ft 467 kts 29°
2026-04-16 16:28 36.47873 -9.90440 34158 ft 468 kts 29°
2026-04-16 16:28 36.53658 -9.86689 34157 ft 468 kts 29°
2026-04-16 16:29 36.59397 -9.82962 34148 ft 469 kts 29°
2026-04-16 16:29 36.65162 -9.79206 34162 ft 469 kts 28°
2026-04-16 16:30 36.70912 -9.75463 34164 ft 469 kts 28°
2026-04-16 16:30 36.76684 -9.71694 34163 ft 468 kts 29°
2026-04-16 16:31 36.82449 -9.67914 34163 ft 468 kts 28°
2026-04-16 16:31 36.88225 -9.64128 34166 ft 468 kts 28°
2026-04-16 16:32 36.94005 -9.60333 34163 ft 467 kts 29°
2026-04-16 16:32 36.96884 -9.58437 33982 ft 468 kts 29°
2026-04-16 16:32 36.99765 -9.56543 33355 ft 468 kts 28°
2026-04-16 16:33 37.02639 -9.54701 32621 ft 471 kts 24°
2026-04-16 16:33 37.05779 -9.53549 31868 ft 474 kts
2026-04-16 16:33 37.09074 -9.53501 31134 ft 476 kts 352°
2026-04-16 16:33 37.12341 -9.54387 30423 ft 475 kts 344°
2026-04-16 16:34 37.15504 -9.55448 29672 ft 478 kts 343°
2026-04-16 16:34 37.18710 -9.56499 28983 ft 474 kts 344°
2026-04-16 16:34 37.21889 -9.57506 28471 ft 470 kts 345°
2026-04-16 16:34 37.25057 -9.58488 28040 ft 467 kts 345°
2026-04-16 16:35 37.28198 -9.59459 27635 ft 462 kts 345°
2026-04-16 16:35 37.31314 -9.60412 27246 ft 459 kts 345°
2026-04-16 16:35 37.34416 -9.61356 26872 ft 456 kts 345°
2026-04-16 16:35 37.37489 -9.62297 26573 ft 453 kts 345°
2026-04-16 16:36 37.40547 -9.63228 26308 ft 451 kts 344°
2026-04-16 16:36 37.43591 -9.64178 26021 ft 448 kts 344°
2026-04-16 16:36 37.46604 -9.65120 25492 ft 443 kts 345°
2026-04-16 16:36 37.49592 -9.66037 24816 ft 441 kts 344°
2026-04-16 16:37 37.52565 -9.66949 24140 ft 439 kts 344°
2026-04-16 16:37 37.55526 -9.67864 23424 ft 436 kts 345°
2026-04-16 16:37 37.58427 -9.68762 22720 ft 433 kts 344°
2026-04-16 16:37 37.61335 -9.69664 22022 ft 429 kts 343°
2026-04-16 16:38 37.64221 -9.70564 21350 ft 425 kts 344°
2026-04-16 16:38 37.67079 -9.71455 20718 ft 420 kts 343°
2026-04-16 16:38 37.69904 -9.72336 20108 ft 415 kts 344°
2026-04-16 16:38 37.72688 -9.73207 19550 ft 410 kts 344°
2026-04-16 16:39 37.75442 -9.74071 18999 ft 405 kts 343°
2026-04-16 16:39 37.78163 -9.74922 18451 ft 400 kts 343°
2026-04-16 16:39 37.80852 -9.75760 17871 ft 395 kts 343°
2026-04-16 16:39 37.83501 -9.76588 17312 ft 390 kts 343°
2026-04-16 16:40 37.86114 -9.77405 16751 ft 385 kts 344°
2026-04-16 16:40 37.88703 -9.78212 16231 ft 381 kts 344°
2026-04-16 16:40 37.91276 -9.79015 15736 ft 381 kts 343°
2026-04-16 16:40 37.93856 -9.79827 15234 ft 382 kts 343°
2026-04-16 16:41 37.96441 -9.80595 14720 ft 383 kts 348°
2026-04-16 16:41 37.99118 -9.80707 14211 ft 389 kts
2026-04-16 16:41 38.01700 -9.79808 13692 ft 394 kts 22°
2026-04-16 16:41 38.04005 -9.77944 13161 ft 392 kts 37°
2026-04-16 16:42 38.05425 -9.76474 12835 ft 388 kts 38°
2026-04-16 16:42 38.08155 -9.73614 12190 ft 380 kts 38°
2026-04-16 16:42 38.10201 -9.71514 11707 ft 376 kts 38°
2026-04-16 16:42 38.12227 -9.69464 11335 ft 368 kts 37°
2026-04-16 16:43 38.14204 -9.67477 11114 ft 357 kts 37°
2026-04-16 16:43 38.15506 -9.66171 10986 ft 348 kts 38°
2026-04-16 16:43 38.17376 -9.64299 10812 ft 336 kts 37°
2026-04-16 16:43 38.19155 -9.62518 10599 ft 324 kts 37°
2026-04-16 16:44 38.20894 -9.60771 10392 ft 314 kts 37°
2026-04-16 16:44 38.22599 -9.59070 10154 ft 308 kts 37°
2026-04-16 16:44 38.24277 -9.57416 9845 ft 303 kts 37°
2026-04-16 16:44 38.25965 -9.55759 9275 ft 307 kts 37°
2026-04-16 16:45 38.27620 -9.54121 8887 ft 296 kts 38°
2026-04-16 16:45 38.29209 -9.52534 8522 ft 283 kts 38°
2026-04-16 16:45 38.30721 -9.51017 8179 ft 271 kts 38°
2026-04-16 16:45 38.32216 -9.49515 7900 ft 280 kts 38°
2026-04-16 16:46 38.33754 -9.47968 7616 ft 284 kts 38°
2026-04-16 16:46 38.35304 -9.46410 7313 ft 282 kts 39°
2026-04-16 16:46 38.36842 -9.44861 7006 ft 280 kts 39°
2026-04-16 16:46 38.38369 -9.43323 6698 ft 279 kts 39°
2026-04-16 16:47 38.39886 -9.41793 6380 ft 277 kts 39°
2026-04-16 16:47 38.41372 -9.40294 6099 ft 275 kts 39°
2026-04-16 16:47 38.42862 -9.38789 5833 ft 273 kts 39°
2026-04-16 16:47 38.44344 -9.37288 5577 ft 270 kts 39°
2026-04-16 16:48 38.45811 -9.35804 5330 ft 268 kts 39°
2026-04-16 16:48 38.47270 -9.34329 5073 ft 267 kts 39°
2026-04-16 16:48 38.48721 -9.32850 4719 ft 267 kts 39°
2026-04-16 16:48 38.50177 -9.31359 4237 ft 270 kts 39°
2026-04-16 16:49 38.51670 -9.29855 3711 ft 275 kts 38°
2026-04-16 16:49 38.53170 -9.28351 3209 ft 272 kts 38°
2026-04-16 16:49 38.54644 -9.26879 3000 ft 263 kts 38°
2026-04-16 16:49 38.56058 -9.25503 2961 ft 248 kts 32°
2026-04-16 16:50 38.57550 -9.24557 2959 ft 230 kts 23°
2026-04-16 16:50 38.58941 -9.23824 3016 ft 204 kts 23°
2026-04-16 16:50 38.60225 -9.23149 3005 ft 198 kts 22°
2026-04-16 16:50 38.61479 -9.22487 2988 ft 193 kts 22°
2026-04-16 16:51 38.62714 -9.21830 2981 ft 191 kts 23°
2026-04-16 16:51 38.63915 -9.21190 2926 ft 186 kts 23°
2026-04-16 16:51 38.65086 -9.20566 2768 ft 175 kts 23°
2026-04-16 16:51 38.66204 -9.19969 2555 ft 173 kts 23°
2026-04-16 16:52 38.67304 -9.19381 2323 ft 170 kts 22°
2026-04-16 16:52 38.68382 -9.18806 2094 ft 165 kts 22°
2026-04-16 16:52 38.69428 -9.18247 1870 ft 155 kts 23°
2026-04-16 16:52 38.70370 -9.17743 1671 ft 141 kts 22°
2026-04-16 16:53 38.71255 -9.17270 1459 ft 134 kts 20°
2026-04-16 16:53 38.72093 -9.16822 1295 ft 130 kts 20°
2026-04-16 16:53 38.72954 -9.16362 1103 ft 135 kts 20°
2026-04-16 16:53 38.73816 -9.15902 958 ft 135 kts 20°
2026-04-16 16:54 38.74691 -9.15433 793 ft 136 kts 18°
2026-04-16 16:54 38.75597 -9.14950 592 ft 144 kts 19°
2026-04-16 16:54 38.76495 -9.14468 401 ft 139 kts 18°
2026-04-16 16:54 38.77357 -9.14002 355 ft 121 kts 22°
2026-04-16 16:55 38.77879 -9.13726 352 ft 38 kts 22°
2026-04-16 16:55 38.78000 -9.13663 352 ft 18 kts 20°
2026-04-16 16:55 38.78120 -9.13597 354 ft 20 kts 23°
2026-04-16 16:55 38.78243 -9.13519 355 ft 19 kts 38°
2026-04-16 16:56 38.78323 -9.13421 354 ft 15 kts 46°
2026-04-16 16:56 38.78373 -9.13348 351 ft 7 kts 56°
2026-04-16 16:56 38.78369 -9.13280 356 ft 9 kts 133°